Temperature
19 19 19 19 20 20 20 20 20 20 20 20 20 19 19 19 19 19 19 19 19 19 18 18 18 18 18 18 18 18 18 18 18 18 18 18 17 17 17 17 17 17 17
20 19 19 19 20 20 20 20 20 20 20 20 20 19 19 19 19 19 19 19 19 19 18 18 18 18 18 18 18 18 18 18 18 17 17 17 17 17 17 17 17 17 17
20 19 19 19 20 20 20 20 20 20 20 20 19 19 19 19 19 19 19 19 19 19 18 18 18 18 18 18 18 18 18 18 18 17 17 17 17 17 17 17 17 17 17
20 20 19 19 20 20 20 20 20 20 19 19 19 19 19 19 19 19 19 19 19 19 18 18 18 18 18 18 18 18 18 18 17 17 17 17 17 17 17 17 17 17 17
20 20 20 20 20 20 20 20 20 20 19 19 19 19 19 19 19 19 19 19 19 19 18 18 18 18 18 18 18 17 17 17 17 17 17 17 17 17 17 17 17 17 17
20 20 20 20 19 20 20 20 20 20 19 19 19 19 19 19 19 19 19 19 19 19 18 18 18 18 18 17 17 17 17 17 17 17 17 17 17 17 17 17 17 17 17
20 19 19 19 19 19 19 19 19 19 19 19 19 19 19 19 18 18 18 18 18 18 18 18 18 18 18 17 17 17 17 17 17 17 17 17 17 17 17 17 17 17 17
20 19 19 19 19 19 19 19 19 19 19 19 19 19 19 18 18 18 18 18 18 18 18 18 18 18 18 17 17 17 17 17 17 17 17 17 17 17 17 17 17 17 17
19 19 19 19 19 19 19 19 19 19 19 19 19 18 18 18 18 18 18 18 18 18 18 18 18 18 17 17 17 17 17 17 17 17 17 17 17 17 17 17 17 17 17
19 19 19 19 19 19 19 19 19 19 19 18 18 18 18 18 18 18 18 18 17 17 18 17 17 18 17 17 17 17 17 17 17 17 17 17 17 17 17 17 17 17 17
19 19 19 19 19 19 19 19 19 18 18 18 18 18 18 18 17 17 17 17 17 17 17 17 17 17 17 17 17 17 17 17 17 17 17 17 17 17 17 17 17 17 17
19 19 19 19 19 19 19 19 18 18 18 18 18 18 17 17 17 17 17 17 17 17 17 17 17 17 17 17 17 17 17 17 17 17 17 17 17 17 17 17 17 17 17
19 19 19 19 19 19 19 18 18 18 18 18 18 17 17 17 17 17 17 17 17 17 17 17 17 17 17 17 17 17 17 17 17 17 17 17 17 17 17 17 17 17 17
19 19 19 19 18 18 18 18 18 18 18 18 17 17 17 17 17 17 17 17 16 16 16 16 16 16 17 17 17 17 17 17 17 17 17 17 17 17 17 17 17 17 17
19 19 19 18 18 18 18 18 18 18 18 17 17 17 17 17 17 16 16 16 16 16 16 16 16 16 16 16 16 16 16 16 16 16 17 17 17 17 17 17 17 17 17
19 19 19 19 18 18 18 18 18 18 18 17 17 17 17 16 16 16 16 16 16 16 16 16 16 16 16 16 16 16 16 16 16 16 16 17 17 17 17 17 17 17 16
19 19 19 18 18 18 18 18 18 18 17 17 17 17 16 16 16 16 15 15 15 15 15 15 15 15 15 15 15 15 15 16 16 16 16 16 16 16 16 16 16 16 16
19 19 18 18 18 18 18 18 18 17 17 17 17 16 16 16 16 15 15 15 15 15 15 14 14 14 14 15 15 15 15 15 15 16 16 16 16 16 16 16 16 16 16
18 18 18 18 18 18 18 17 17 17 17 17 16 16 16 16 15 15 15 15 14 14 14 14 14 14 14 14 14 14 15 15 15 15 15 16 16 16 16 16 16 16 16
18 18 18 18 18 18 17 17 17 17 16 16 16 16 15 15 15 15 14 14 14 14 14 14 13 13 14 14 14 14 14 14 15 15 15 15 15 16 16 16 16 16 16
18 18 18 18 18 18 17 17 17 17 16 16 16 15 15 15 15 14 14 14 14 13 13 13 13 13 13 13 13 14 14 14 14 14 14 15 15 15 15 15 15 15 15
18 18 18 18 18 18 17 17 17 17 16 16 16 15 15 15 14 14 14 13 13 13 13 13 13 13 13 13 13 13 13 13 13 14 14 14 14 15 15 15 15 15 15
18 18 18 18 18 18 17 17 17 17 16 16 16 15 15 14 14 14 13 13 13 13 13 12 12 12 12 12 12 13 13 13 13 13 13 14 14 14 14 14 15 15 15
18 18 18 18 18 18 17 17 17 17 17 16 16 15 15 14 14 14 13 13 13 12 12 12 12 12 12 12 12 12 12 12 12 13 13 13 13 13 14 14 14 14 15
19 18 18 18 18 18 17 17 17 17 16 16 15 15 14 14 14 13 13 13 13 12 12 12 12 12 12 12 11 11 12 12 12 12 12 13 13 13 13 14 14 14 14
19 18 18 18 18 18 17 17 17 16 16 16 15 15 14 14 14 13 13 13 12 12 12 12 11 11 11 11 11 11 11 11 11 11 11 12 13 13 13 13 13 13 14
Wind_Speed
7 12 19 19 19 20 21 21 20 20 19 19 18 17 16 15 14 13 13 12 11 10 10 10 11 11 11 10 11 11 11 11 11 12 12 13 13 14 15 15 15 15 17
11 16 20 20 20 20 20 20 20 19 18 18 17 16 15 14 13 12 12 11 11 10 10 10 10 11 11 11 11 11 11 11 11 12 12 13 13 14 14 14 14 14 16
13 16 20 20 20 20 19 19 19 18 17 16 16 15 14 13 12 11 11 10 10 10 10 10 10 10 10 10 11 11 10 10 11 11 12 11 12 13 13 14 15 16 16
13 15 18 20 19 19 19 18 18 17 16 15 14 13 13 12 11 10 10 9 9 9 9 9 10 10 9 9 9 9 9 10 10 11 9 9 10 13 13 14 15 15 15
11 14 18 20 19 18 18 17 17 16 15 14 13 12 12 11 10 9 9 9 8 8 8 8 8 9 8 8 8 7 7 9 10 9 8 8 9 13 14 14 15 15 14
9 13 17 20 19 18 17 16 16 15 14 13 12 11 11 10 9 8 8 7 7 7 7 7 7 7 7 7 6 6 6 7 8 8 8 9 10 12 14 14 14 14 14
9 11 16 19 18 17 16 16 15 14 14 13 12 11 10 9 8 8 7 6 6 6 6 6 6 6 6 5 5 5 5 6 7 7 7 8 10 12 13 14 14 14 13
9 9 13 17 17 16 16 15 14 13 13 12 11 10 9 8 7 6 6 6 5 5 4 5 5 4 4 4 4 4 5 5 6 6 7 8 10 13 13 14 13 14 13
8 8 9 13 15 15 15 14 13 13 12 11 10 9 8 7 6 5 5 4 5 4 4 3 3 3 2 2 2 3 4 4 5 5 7 8 10 13 13 13 13 13 13
6 6 6 9 11 12 13 13 12 12 11 10 9 8 7 6 5 5 4 4 4 4 4 4 3 3 2 1 1 1 2 3 3 3 5 8 11 13 14 14 14 14 14
9 6 5 6 8 10 10 11 11 11 10 9 8 7 5 3 2 2 3 4 4 4 4 4 4 3 2 1 1 1 1 2 1 2 5 8 11 13 14 15 15 15 14
11 9 6 6 7 8 8 8 8 7 7 7 5 5 4 3 2 1 0 1 1 0 1 1 2 1 1 1 2 2 1 2 2 2 5 8 11 13 14 15 16 15 15
9 8 7 7 7 7 5 7 6 6 6 6 5 5 5 4 4 4 4 4 3 3 2 2 2 2 1 1 1 1 1 1 3 3 4 7 10 13 15 16 16 16 16
9 8 7 6 6 6 6 6 6 5 5 5 5 6 6 4 4 4 4 4 4 3 3 2 2 2 2 2 1 1 1 1 2 3 5 6 9 12 14 16 17 17 17
7 7 7 7 6 5 5 4 5 5 5 6 6 6 7 5 4 4 4 5 5 4 3 2 2 2 2 3 3 2 1 2 3 3 4 6 7 10 14 15 16 16 17
7 7 7 7 6 6 5 4 4 6 7 7 6 6 7 7 6 5 4 4 4 4 3 3 3 2 2 2 3 3 2 2 3 4 4 6 8 10 12 14 14 14 15
8 7 7 7 6 7 6 5 6 7 7 6 7 7 8 9 8 6 4 3 4 5 5 5 4 4 3 2 2 3 3 3 4 4 4 5 7 9 11 12 13 13 15
7 7 7 8 7 7 6 6 6 7 7 6 8 8 8 8 8 7 4 3 4 5 5 3 3 3 3 3 2 3 3 3 4 5 5 5 6 6 8 10 13 13 14
7 8 7 7 8 7 7 6 6 6 6 6 7 7 7 8 8 8 5 4 5 5 3 2 3 2 2 3 2 2 3 3 4 4 4 4 5 6 7 9 11 13 14
7 8 8 7 7 7 6 5 5 4 3 4 5 6 7 7 8 8 5 5 5 4 3 3 3 3 2 2 2 3 3 3 3 3 4 4 4 4 5 6 7 8 11
8 8 8 8 7 7 5 5 4 3 2 2 3 5 6 7 7 7 5 4 4 3 2 2 2 3 4 3 2 3 3 3 4 4 5 5 6 5 2 2 3 5 6
10 9 8 8 8 7 5 4 3 4 3 2 2 3 5 6 6 6 5 3 3 3 3 3 2 2 3 3 2 2 3 4 4 5 5 6 7 7 6 4 3 3 4
10 11 10 9 8 7 6 5 5 4 4 2 2 1 2 4 5 5 6 4 3 3 2 2 2 2 2 2 2 2 2 0 2 3 4 5 6 6 6 6 6 5 4
10 9 9 9 8 7 8 7 7 5 4 4 3 2 1 2 3 5 6 5 4 3 3 2 2 1 2 1 1 2 1 1 0 2 3 4 5 5 6 5 6 6 6
10 10 9 9 8 7 7 8 7 5 3 3 2 2 1 0 1 3 5 5 4 3 3 3 2 2 1 1 1 1 1 2 1 0 2 4 4 4 5 4 5 6 8
8 9 9 9 7 7 8 8 8 8 6 5 3 3 2 1 1 2 4 4 4 3 3 3 3 3 2 2 1 1 1 1 1 1 1 2 3 3 4 3 3 5 7
Wind_Direction
152 155 151 145 138 132 128 126 124 123 122 122 122 122 122 123 123 123 123 121 119 114 110 105 101 101 102 101 101 102 105 109 112 116 119 119 119 121 121 119 116 116 118
144 153 152 147 141 136 132 130 129 127 127 126 125 125 124 124 123 123 122 121 120 116 112 108 105 105 105 105 104 105 108 111 115 118 119 121 123 122 122 122 120 123 124
141 151 152 149 144 139 136 134 133 132 131 130 129 128 128 127 125 125 123 122 119 116 114 110 109 107 105 105 105 106 108 111 114 114 112 114 123 126 128 128 126 127 125
141 147 152 150 147 143 140 138 137 135 134 133 133 132 131 131 129 128 126 122 120 118 116 114 112 110 107 106 106 107 111 115 117 115 111 118 126 131 133 132 129 129 127
138 146 155 153 150 147 144 142 141 139 138 137 137 137 137 135 135 132 130 127 123 120 120 117 115 112 110 107 102 102 108 121 123 119 118 122 128 134 134 135 132 131 129
135 147 157 156 153 151 149 147 144 143 143 143 142 142 144 144 143 141 137 132 127 125 123 123 120 116 113 106 99 90 95 118 120 124 127 132 138 141 139 140 139 136 134
136 146 157 157 155 153 151 150 149 149 149 149 150 151 152 153 152 149 147 143 139 135 133 131 126 122 117 106 92 77 80 109 121 133 139 145 150 150 147 145 143 141 140
137 140 154 157 156 155 154 153 153 153 153 154 157 158 159 161 162 161 158 156 154 150 145 141 137 131 119 104 86 69 71 95 120 140 150 158 163 158 155 152 149 148 147
134 134 142 154 156 157 157 158 158 157 158 159 161 163 164 165 167 167 168 173 173 170 172 172 167 157 140 115 89 70 71 90 116 146 164 172 175 169 165 161 158 154 152
135 132 132 139 146 152 158 161 160 160 161 162 164 168 175 178 183 188 189 200 204 205 207 211 210 211 209 192 129 82 92 90 114 157 175 184 186 180 175 171 169 164 161
156 145 136 134 140 146 154 162 162 162 164 163 166 170 167 152 162 204 223 221 226 230 233 238 243 239 235 262 309 350 109 128 151 183 193 194 194 192 186 181 178 175 172
169 164 151 148 149 150 158 154 153 152 154 151 151 150 138 122 111 98 6 201 178 172 244 264 254 285 316 333 351 10 58 193 202 222 220 213 204 200 196 190 187 183 181
167 167 164 163 161 156 148 145 142 136 135 133 132 128 119 105 87 71 60 49 54 58 52 34 39 32 21 359 2 13 343 237 226 235 238 234 218 208 203 197 194 191 189
162 172 167 169 166 163 154 149 143 138 134 129 129 131 122 108 90 80 73 63 61 62 60 53 50 22 8 6 360 348 332 263 241 244 251 247 228 217 210 203 200 199 197
165 171 167 170 169 163 152 149 145 142 140 137 130 128 128 117 106 95 78 67 59 59 62 57 49 35 23 15 5 349 309 298 286 266 266 263 244 229 219 210 205 204 204
172 174 166 167 169 161 152 144 145 149 146 135 132 131 126 122 118 107 88 72 60 57 66 72 66 62 45 29 7 350 324 306 296 288 274 271 258 241 226 219 214 210 210
174 169 166 168 162 157 149 150 149 147 142 136 135 132 129 127 123 115 98 80 65 70 79 77 64 57 44 28 6 349 338 315 298 290 280 268 263 249 236 227 222 219 219
164 160 168 173 159 152 144 139 137 137 138 136 135 135 133 129 127 115 101 87 78 75 75 78 54 55 38 23 359 342 340 324 313 301 288 275 265 257 247 238 233 229 228
169 159 161 158 155 146 133 126 123 127 130 132 135 136 135 131 128 117 108 100 93 76 62 67 55 56 36 5 340 346 350 342 333 330 316 297 275 260 253 250 247 240 236
164 157 154 150 145 131 119 108 98 96 100 123 137 142 142 138 132 120 111 103 96 81 61 57 65 50 39 350 345 358 351 355 358 7 355 347 325 286 260 253 253 249 242
157 156 158 153 148 140 133 130 128 132 129 124 148 152 150 145 138 130 121 110 97 92 82 75 78 56 30 2 19 360 352 5 23 30 23 26 17 1 343 290 265 255 254
166 167 163 161 158 158 148 138 132 129 130 126 120 142 160 158 153 150 142 132 119 107 84 71 76 81 34 26 56 55 8 356 359 12 19 31 24 24 22 10 352 313 278
172 175 173 169 163 159 140 117 100 86 76 86 110 143 175 176 175 170 163 151 142 131 124 109 98 106 81 28 41 103 105 333 320 336 2 15 13 23 18 13 16 5 341
182 176 170 167 163 158 150 148 148 153 164 183 172 172 168 175 184 184 179 170 160 151 152 157 129 112 118 71 28 39 81 154 100 333 333 351 359 14 8 7 7 5 0
178 173 170 163 162 160 161 161 152 149 156 142 130 145 155 150 209 197 186 176 170 169 174 163 142 136 135 146 135 88 70 56 70 134 316 332 340 339 344 345 356 3 3
171 169 166 164 169 167 166 164 163 162 159 153 160 172 186 209 249 204 180 179 181 183 186 183 172 169 175 171 172 170 164 159 174 167 250 302 314 311 322 327 348 355 360
Height
1528 1531 1534 1537 1539 1541 1543 1544 1545 1546 1547 1549 1550 1551 1552 1552 1553 1554 1554 1555 1555 1556 1556 1556 1557 1557 1557 1558 1558 1558 1558 1559 1559 1560 1561 1561 1562 1562 1563 1564 1565 1566 1567
1527 1531 1535 1538 1540 1542 1544 1545 1546 1548 1549 1550 1551 1552 1553 1554 1555 1555 1556 1556 1557 1557 1557 1558 1558 1558 1559 1559 1559 1560 1560 1561 1561 1562 1562 1563 1564 1565 1565 1566 1567 1568 1570
1528 1532 1535 1539 1541 1543 1545 1547 1548 1549 1550 1551 1553 1554 1555 1556 1556 1557 1557 1558 1558 1559 1559 1559 1560 1560 1560 1561 1561 1562 1562 1562 1563 1564 1564 1565 1566 1567 1567 1568 1569 1570 1572
1529 1533 1536 1539 1542 1544 1546 1548 1549 1550 1552 1553 1554 1555 1556 1557 1558 1558 1559 1559 1560 1560 1561 1561 1561 1562 1562 1563 1563 1563 1564 1565 1565 1566 1566 1567 1568 1568 1569 1570 1571 1573 1574
1531 1534 1537 1540 1543 1545 1547 1548 1550 1551 1553 1554 1555 1556 1557 1558 1559 1560 1560 1561 1561 1562 1562 1563 1563 1563 1564 1564 1565 1565 1566 1566 1567 1567 1568 1569 1569 1570 1571 1572 1573 1575 1576
1532 1535 1538 1541 1543 1546 1548 1549 1551 1552 1553 1555 1556 1557 1558 1559 1560 1561 1562 1562 1563 1563 1564 1564 1565 1565 1566 1566 1567 1567 1568 1568 1569 1569 1570 1570 1571 1572 1573 1574 1575 1576 1578
1533 1536 1539 1542 1544 1546 1548 1550 1551 1553 1554 1555 1557 1558 1559 1560 1561 1562 1563 1563 1564 1565 1565 1566 1566 1566 1567 1567 1568 1569 1569 1570 1570 1571 1571 1572 1572 1573 1574 1575 1576 1578 1579
1533 1537 1540 1543 1544 1546 1549 1550 1552 1553 1555 1556 1558 1559 1560 1561 1562 1563 1563 1564 1565 1566 1566 1567 1567 1568 1568 1569 1569 1570 1570 1571 1571 1572 1572 1573 1573 1574 1575 1576 1577 1579 1580
1534 1537 1540 1543 1545 1547 1549 1551 1552 1554 1555 1556 1558 1559 1561 1561 1562 1563 1564 1565 1566 1566 1567 1567 1568 1568 1569 1569 1570 1570 1571 1572 1572 1572 1573 1573 1574 1575 1576 1577 1578 1580 1581
1535 1538 1540 1543 1545 1547 1549 1551 1553 1554 1555 1557 1558 1560 1561 1562 1563 1564 1564 1565 1566 1566 1567 1567 1568 1568 1569 1569 1570 1570 1571 1571 1572 1573 1573 1574 1574 1575 1576 1578 1579 1580 1581
1534 1537 1540 1543 1545 1548 1550 1551 1553 1554 1556 1557 1558 1560 1561 1562 1563 1564 1564 1565 1565 1566 1566 1567 1567 1568 1568 1568 1569 1570 1570 1571 1572 1573 1573 1574 1575 1575 1577 1578 1579 1580 1582
1532 1536 1539 1542 1545 1547 1549 1551 1553 1554 1556 1557 1558 1560 1561 1562 1562 1563 1564 1564 1565 1565 1565 1566 1566 1567 1567 1567 1568 1569 1569 1570 1571 1572 1573 1573 1574 1575 1576 1578 1579 1580 1582
1532 1535 1538 1542 1545 1547 1549 1551 1553 1554 1556 1557 1558 1560 1560 1561 1562 1562 1563 1563 1563 1564 1564 1564 1565 1565 1566 1566 1567 1567 1568 1568 1569 1570 1571 1572 1573 1574 1576 1577 1578 1580 1581
1532 1535 1539 1542 1545 1547 1549 1551 1553 1554 1556 1557 1558 1559 1560 1561 1561 1562 1562 1562 1562 1563 1563 1563 1563 1563 1564 1564 1565 1565 1566 1567 1567 1568 1569 1570 1571 1573 1574 1576 1577 1579 1580
1532 1535 1539 1542 1545 1547 1549 1551 1553 1554 1556 1557 1558 1559 1559 1560 1560 1561 1561 1561 1561 1561 1561 1561 1561 1561 1562 1562 1562 1563 1564 1564 1565 1566 1567 1568 1569 1571 1572 1574 1575 1577 1579
1531 1535 1539 1542 1545 1547 1549 1550 1552 1554 1555 1556 1557 1558 1559 1559 1559 1559 1560 1559 1559 1560 1560 1560 1559 1559 1559 1560 1560 1561 1561 1562 1563 1563 1564 1565 1567 1568 1569 1571 1573 1575 1577
1531 1534 1538 1541 1544 1546 1548 1550 1552 1553 1555 1556 1557 1557 1558 1558 1558 1558 1558 1558 1558 1558 1558 1558 1558 1557 1557 1557 1558 1558 1559 1559 1560 1560 1561 1562 1564 1565 1567 1568 1570 1572 1574
1530 1534 1538 1541 1543 1545 1547 1549 1551 1553 1554 1555 1556 1557 1557 1557 1558 1558 1557 1557 1557 1557 1556 1556 1556 1556 1556 1556 1556 1556 1556 1557 1557 1558 1558 1560 1561 1562 1564 1565 1567 1568 1570
1530 1533 1537 1540 1542 1544 1547 1549 1551 1553 1554 1555 1556 1556 1557 1557 1557 1557 1557 1556 1556 1555 1555 1555 1554 1554 1554 1554 1554 1554 1554 1554 1555 1555 1556 1557 1558 1559 1560 1562 1563 1565 1567
1529 1533 1536 1539 1541 1543 1546 1548 1550 1552 1553 1555 1555 1556 1557 1557 1557 1556 1556 1555 1555 1554 1554 1553 1553 1553 1553 1553 1553 1553 1552 1553 1553 1553 1553 1554 1555 1556 1557 1559 1560 1562 1563
1528 1531 1534 1537 1540 1542 1544 1547 1549 1551 1553 1554 1555 1555 1556 1556 1556 1556 1555 1555 1554 1553 1553 1552 1552 1552 1552 1551 1551 1551 1551 1551 1552 1552 1552 1552 1553 1553 1554 1556 1557 1558 1560
1527 1530 1533 1536 1539 1541 1544 1546 1548 1550 1552 1553 1554 1555 1555 1556 1555 1555 1555 1554 1553 1553 1552 1552 1551 1551 1551 1550 1551 1550 1551 1552 1551 1551 1551 1551 1551 1552 1553 1554 1555 1556 1557
1525 1528 1531 1535 1538 1541 1543 1546 1548 1549 1551 1552 1553 1554 1554 1555 1555 1554 1554 1554 1553 1553 1552 1551 1551 1551 1550 1550 1550 1550 1550 1550 1551 1551 1551 1551 1551 1551 1551 1552 1553 1553 1554
1523 1527 1530 1534 1537 1540 1542 1545 1547 1548 1549 1550 1551 1552 1553 1553 1553 1553 1553 1553 1553 1552 1552 1551 1550 1550 1550 1549 1549 1549 1550 1550 1550 1550 1551 1550 1551 1551 1551 1551 1551 1551 1552
1522 1525 1529 1533 1536 1539 1541 1544 1546 1547 1548 1549 1550 1551 1551 1552 1552 1552 1552 1552 1552 1551 1551 1550 1550 1550 1549 1549 1549 1549 1549 1549 1549 1549 1549 1549 1550 1550 1549 1549 1549 1550 1550
1520 1524 1527 1531 1534 1537 1540 1542 1544 1546 1546 1547 1548 1549 1549 1550 1550 1550 1550 1550 1550 1550 1550 1550 1549 1549 1548 1548 1548 1548 1548 1548 1548 1548 1547 1547 1547 1547 1548 1548 1548 1548 1548